GFSWCAN_prec_cthk_234.txt.gz
RH
50 50 51 50 48 52 52 52 51 59 59 62 65 64 53 47 47 61 58 67 69 60 51 70 73 86 96 98 97 85 95 92 95 98 96 95 85 75 75 61 67 76 80 73 72 81 74 16 19 38 26 26 28 28
48 46 47 45 48 49 50 45 48 60 60 62 69 54 48 43 37 50 53 55 67 83 69 84 89 92 96 97 97 97 93 93 97 96 96 93 91 78 71 69 70 73 67 70 63 52 30 22 30 31 30 33 21 32
40 42 41 43 50 46 47 42 49 59 60 61 55 48 47 38 35 42 49 54 89 94 87 89 88 89 90 89 94 97 93 95 97 96 98 98 97 83 81 73 73 68 70 75 74 42 40 35 43 34 32 39 28 50
39 41 39 43 48 42 43 39 51 59 56 51 47 49 42 33 37 44 50 76 99 97 94 84 86 88 83 81 85 91 94 99 99 98 98 98 95 83 79 75 76 74 75 70 71 52 44 47 55 44 53 58 41 40
39 39 38 45 48 42 41 40 53 59 51 41 48 46 36 35 42 45 58 92 98 99 95 90 88 76 65 68 76 79 93 98 99 99 98 96 93 93 86 84 70 70 70 73 62 49 65 55 57 60 65 50 44 49
39 39 41 44 43 39 37 46 54 53 45 41 44 41 32 40 44 52 83 98 97 99 98 90 80 72 71 71 70 72 86 98 98 98 98 97 94 92 90 76 65 64 63 66 59 63 66 65 67 61 63 52 57 61
38 39 43 45 40 38 40 50 53 50 44 38 42 38 32 37 45 56 88 94 99 99 97 89 78 75 76 78 78 80 85 97 98 98 97 93 91 96 89 78 61 63 62 65 64 65 62 59 58 58 55 53 57 54
42 45 45 45 42 38 44 51 51 48 39 36 41 39 32 32 38 48 86 99 98 99 96 89 78 77 82 89 93 95 96 96 98 97 91 87 87 88 77 58 62 60 60 60 60 62 62 57 57 51 49 51 51 48
46 47 46 44 43 39 46 51 50 47 33 39 39 37 33 39 47 46 79 98 98 98 97 85 80 85 88 90 96 95 97 97 94 92 87 87 79 78 67 65 63 65 66 65 63 64 62 61 55 52 47 46 46 45
47 49 49 45 42 41 46 51 50 42 41 33 45 50 44 47 45 52 76 90 96 98 96 84 83 86 89 93 94 94 93 90 87 80 82 79 66 70 73 77 78 80 81 79 72 65 66 62 60 56 50 47 45 46
46 49 49 46 43 42 49 53 49 42 42 36 55 59 50 48 61 69 72 88 97 95 90 86 88 90 94 94 94 92 94 89 86 78 81 80 74 79 81 82 82 84 85 85 80 73 68 67 66 67 60 51 50 48
41 45 47 46 46 44 52 54 47 46 50 42 47 59 52 59 62 67 72 81 91 90 94 92 94 92 89 89 92 92 91 92 85 88 91 80 81 85 86 83 85 89 88 88 86 79 75 74 70 68 66 57 51 46
34 41 43 46 45 44 54 56 51 53 47 42 58 70 60 61 65 64 73 80 87 88 89 89 91 89 86 88 93 94 94 85 82 90 83 78 84 85 86 85 85 89 91 93 91 90 88 77 71 66 62 57 54 57
40 36 39 45 48 49 50 54 54 52 51 53 61 74 63 55 53 51 58 80 78 71 80 83 85 87 87 92 91 94 85 90 89 86 83 87 79 84 86 84 86 89 91 92 93 93 92 88 88 74 69 68 69 82
39 35 39 40 48 47 54 54 52 53 55 55 61 75 63 43 48 54 62 69 66 65 74 77 74 73 79 90 91 92 92 84 81 90 87 82 82 87 86 88 90 94 92 92 94 96 98 98 97 95 89 93 95 96
41 36 37 48 47 50 56 55 56 50 55 50 54 75 63 50 52 55 59 62 71 80 85 85 88 97 91 88 88 87 81 86 91 89 85 82 79 83 91 92 95 97 94 94 91 95 97 95 96 96 98 98 97 97
43 42 44 50 51 53 58 60 59 60 57 58 63 70 60 45 49 54 55 58 70 86 92 90 88 78 85 86 85 91 95 96 93 91 83 84 78 86 91 91 96 97 95 95 95 96 97 97 98 97 97 97 96 96
43 38 45 51 53 56 57 60 63 59 64 63 68 71 63 50 46 45 48 54 64 82 86 88 88 86 92 89 88 88 87 87 86 86 81 83 82 86 93 94 97 97 97 95 97 96 98 98 98 98 98 98 98 98
41 38 43 52 60 60 59 61 63 62 52 57 64 73 66 55 48 47 52 59 66 74 86 84 82 79 85 88 89 85 86 90 89 82 81 81 86 90 97 96 98 98 98 98 98 98 98 98 98 98 97 97 96 97
41 40 49 56 62 63 65 61 64 64 56 63 71 79 71 63 55 50 52 57 60 65 68 68 67 76 80 84 89 89 86 92 91 83 79 81 85 87 96 97 96 97 98 97 98 97 97 98 97 97 96 95 95 97
47 50 57 59 62 64 67 65 65 63 63 64 77 81 75 69 64 59 59 59 59 58 59 60 63 65 66 67 75 82 87 89 93 91 82 79 80 81 77 86 96 93 95 97 98 98 98 96 94 89 87 87 88 88
50 59 66 68 69 69 67 63 66 72 67 69 82 80 75 72 70 69 62 59 59 60 61 59 60 60 61 62 64 66 71 82 90 92 92 85 84 81 77 76 82 90 91 94 96 98 97 91 88 88 87 86 83 84
61 68 70 71 69 67 63 63 69 69 71 77 85 83 79 78 75 68 63 56 54 54 54 55 55 56 58 59 62 64 66 69 77 90 90 91 87 84 84 78 75 77 86 90 94 97 97 91 88 84 84 83 83 83
70 73 79 73 67 71 63 67 71 74 76 87 86 87 85 82 73 71 65 58 57 55 55 53 53 54 55 57 59 62 63 66 69 76 91 98 94 92 86 85 85 82 83 86 90 94 97 96 91 83 78 78 78 78
77 80 78 72 69 70 68 68 72 79 87 93 91 88 87 87 83 75 65 58 57 56 52 51 50 50 52 53 54 55 57 61 65 68 74 88 98 98 96 90 89 91 89 87 90 93 94 97 97 98 95 88 82 81
78 75 70 70 72 68 71 73 75 82 92 94 89 86 85 86 80 70 59 55 53 52 50 48 47 45 44 43 44 44 46 50 56 62 69 75 83 96 98 98 95 95 94 93 90 91 93 96 98 98 97 97 96 94
81 77 73 71 78 76 77 73 77 87 92 83 78 77 75 72 68 60 53 51 49 46 42 37 33 32 33 35 36 36 37 40 45 50 58 69 79 86 98 98 98 98 95 98 97 92 90 91 94 97 98 98 98 98
75 72 75 83 80 76 82 80 83 86 86 79 77 72 69 64 57 52 51 47 45 37 32 29 28 29 29 30 32 34 38 42 46 48 50 55 64 80 90 98 98 98 98 98 98 98 97 92 91 91 91 91 91 94
79 77 79 86 88 88 88 92 92 89 85 82 79 72 70 62 53 51 49 48 39 37 34 31 30 30 30 30 30 31 33 34 38 40 44 47 46 54 71 91 98 98 98 98 98 98 98 98 96 93 88 85 84 86
76 82 82 86 89 89 93 95 93 87 76 70 69 69 62 57 55 53 51 46 44 41 36 33 30 31 30 31 32 32 32 32 33 34 37 36 37 37 43 65 82 94 97 98 98 98 98 98 98 95 92 91 88 84
83 85 87 88 91 96 98 94 84 76 80 77 69 61 58 60 60 58 53 49 45 39 34 31 29 31 32 33 34 36 36 35 35 34 34 33 32 31 28 29 46 73 85 93 97 98 98 98 98 96 94 94 96 96
87 89 88 91 97 99 97 93 85 85 79 69 63 62 64 65 63 60 53 49 44 38 36 34 35 37 37 37 38 38 38 38 38 38 37 37 36 35 33 32 30 28 47 72 88 93 98 98 98 98 98 97 96 97
88 89 93 97 98 98 97 93 89 83 75 70 67 66 67 64 63 59 55 47 41 39 37 37 39 39 41 43 42 41 41 42 41 38 35 34 33 32 31 31 30 30 30 30 44 76 90 97 98 98 99 99 99 98

GFSWCAN_prec_cthk_240.txt.gz
RH
40 43 44 51 57 55 50 47 42 46 51 46 42 52 54 55 60 67 62 64 72 68 50 58 59 68 70 74 82 79 90 81 89 96 95 79 77 67 68 58 63 70 85 71 69 75 59 31 45 54 53 37 38 38
42 49 51 56 56 51 45 45 44 48 48 46 44 57 58 60 62 53 57 52 51 61 47 52 69 75 76 79 84 84 85 87 91 97 93 94 90 96 96 94 76 84 80 77 63 47 24 26 45 52 54 41 38 38
51 53 52 52 51 45 44 46 45 46 47 43 47 59 59 57 50 46 53 58 58 55 45 41 50 62 73 82 90 97 92 91 84 93 98 98 95 84 87 78 78 73 76 91 86 39 42 53 48 54 51 47 38 48
54 53 54 53 47 44 44 45 48 48 47 42 51 60 57 50 41 50 54 54 58 56 53 59 70 76 87 91 95 97 88 97 97 98 99 98 94 81 77 75 76 74 80 82 78 64 73 63 61 66 54 46 35 37
52 50 51 50 47 45 44 42 46 44 40 43 56 61 53 44 39 43 44 43 46 59 60 73 74 72 77 78 82 96 98 96 97 99 98 87 77 85 75 75 65 68 69 77 74 73 76 68 78 76 70 64 54 44
56 53 51 49 46 43 45 48 45 41 42 51 54 54 45 40 38 51 49 43 45 80 78 76 71 72 80 85 82 86 87 87 93 86 83 78 76 95 92 77 72 75 77 82 77 71 63 57 63 63 62 58 61 56
54 53 53 49 48 47 48 48 44 42 48 50 51 49 41 39 41 52 47 64 69 86 87 85 75 79 77 81 76 72 75 81 83 79 71 72 71 91 96 79 68 75 70 69 69 67 61 60 54 55 55 53 53 49
54 54 54 53 52 49 50 48 44 43 48 49 51 42 38 39 46 49 44 48 51 59 79 87 76 87 89 89 82 80 82 86 85 88 77 72 70 84 85 66 77 73 71 71 67 63 60 59 55 55 55 52 50 42
49 53 54 52 53 52 50 48 45 42 46 50 43 34 40 42 45 43 51 58 69 65 73 80 76 79 88 91 88 88 87 86 79 78 77 81 78 75 59 70 80 85 77 71 68 64 59 55 52 53 54 52 53 46
42 41 46 49 48 51 52 51 43 46 48 43 44 51 52 57 59 55 61 72 70 65 65 52 65 73 89 93 98 98 97 93 89 81 84 86 66 65 65 71 85 80 76 70 64 60 60 59 60 60 62 63 59 56
46 44 43 42 42 46 48 50 46 47 50 55 60 60 58 54 56 61 75 89 73 70 64 54 60 64 68 76 88 96 91 86 88 80 92 89 82 97 89 86 85 77 70 65 67 69 71 71 71 70 68 70 68 65
48 46 46 50 43 44 47 48 45 50 56 59 56 51 49 49 55 59 62 68 63 67 77 83 88 90 93 93 91 88 85 84 84 84 91 84 97 91 88 90 86 79 69 65 68 71 77 81 81 75 72 73 75 76
54 49 48 55 49 41 46 47 48 49 53 56 63 59 57 53 61 67 67 60 64 77 79 82 91 90 91 90 91 86 84 80 79 90 85 93 96 92 86 80 74 67 66 72 73 80 84 86 85 81 78 82 82 85
62 58 49 46 44 40 44 50 52 51 56 62 61 61 59 56 55 52 56 62 85 95 92 89 88 89 87 91 88 90 80 76 81 80 83 97 91 85 79 73 67 62 69 74 82 85 87 86 80 82 85 90 94 92
60 57 47 50 48 46 49 52 53 56 60 63 57 58 48 45 47 58 71 73 82 89 92 90 81 73 74 80 78 78 81 82 77 87 96 92 85 75 70 67 66 65 74 81 87 88 90 90 87 91 94 94 91 92
59 52 52 57 55 55 55 55 56 63 62 59 54 45 44 51 57 68 70 69 72 71 65 67 62 55 69 77 76 76 68 77 96 94 89 85 78 73 70 68 69 74 83 88 90 90 92 97 95 97 97 97 96 97
55 56 60 58 55 55 55 54 63 70 68 54 48 45 45 44 46 59 74 80 82 91 81 57 77 75 72 82 80 90 96 96 94 87 82 79 77 73 71 69 72 82 87 90 92 94 96 97 97 97 96 96 97 97
57 54 56 56 50 52 53 58 71 70 63 47 49 46 47 58 67 66 62 66 82 93 83 69 72 89 87 78 82 96 94 88 84 78 75 74 76 75 73 71 74 86 88 94 95 97 98 98 97 96 97 96 95 96
56 57 52 49 51 58 63 70 72 68 52 48 48 48 51 56 65 71 75 72 80 88 73 61 67 67 80 92 91 91 85 78 73 72 76 74 73 76 74 71 73 78 86 93 97 98 98 98 97 96 97 97 97 97
47 50 51 44 53 62 69 59 64 68 56 53 55 58 57 58 66 71 71 73 81 91 78 56 50 69 79 82 85 80 75 69 58 60 68 72 74 79 78 74 69 71 74 86 95 97 98 98 93 91 96 97 97 97
42 47 58 55 59 62 69 66 73 68 59 56 51 56 61 66 77 78 77 81 83 72 66 65 66 66 68 66 64 61 56 53 52 51 55 58 65 73 80 78 71 73 72 74 86 94 97 98 94 87 88 96 97 98
54 53 50 60 67 75 73 56 63 73 71 68 68 75 75 76 82 78 80 84 82 75 72 65 60 56 54 53 54 52 49 49 50 50 50 50 53 62 71 78 80 75 77 74 74 84 95 98 95 89 85 87 95 97
57 59 58 64 72 79 66 67 69 66 70 59 63 69 70 77 87 85 85 79 78 72 67 66 63 62 60 57 56 53 50 49 51 50 50 51 53 57 62 71 77 80 78 80 76 78 85 96 97 91 87 84 85 92
66 70 68 65 66 62 68 65 66 71 74 72 66 70 80 87 82 82 79 85 81 72 72 68 61 60 58 54 55 52 50 50 52 51 50 51 53 57 61 63 68 79 82 83 84 82 82 87 97 94 89 86 84 84
72 66 67 66 68 79 76 79 70 68 71 72 80 86 89 84 84 82 80 91 85 81 75 68 66 66 64 60 56 51 49 47 49 48 44 45 48 53 59 62 65 71 80 86 85 84 84 84 89 96 93 87 84 84
76 65 70 53 67 75 76 80 76 66 63 75 84 88 87 85 84 81 88 90 91 85 73 69 68 64 61 58 56 50 45 38 40 38 34 36 39 43 50 56 62 68 73 84 91 89 86 86 87 91 97 95 86 83
78 67 43 55 72 75 75 77 79 81 79 72 85 85 82 83 82 87 91 92 89 77 68 64 63 63 58 51 44 38 34 31 31 33 33 34 35 35 40 47 55 62 68 77 90 95 94 88 88 91 94 96 96 89
55 71 86 73 74 81 89 81 81 77 72 80 86 83 83 86 88 89 88 79 66 63 60 58 56 50 45 40 36 35 33 31 34 33 38 39 39 37 34 34 41 51 64 72 80 96 98 97 93 94 95 96 97 97
88 85 90 90 84 82 81 77 75 85 82 81 81 84 85 91 93 88 76 70 65 59 55 49 44 42 41 38 35 31 27 24 31 30 30 36 37 32 30 30 31 35 43 62 74 87 97 97 97 96 97 98 98 98
86 94 93 93 87 81 84 81 83 81 83 84 84 85 91 93 91 90 84 75 64 56 53 52 51 50 47 44 34 29 23 22 22 28 31 32 32 33 32 27 27 27 31 37 58 78 95 98 98 98 98 98 98 97
91 94 93 83 79 74 75 82 86 86 88 91 91 95 93 93 89 83 77 69 60 56 54 52 51 45 40 37 38 38 34 28 25 26 27 29 34 33 27 28 28 26 26 25 35 55 82 97 98 98 98 98 98 98
93 93 86 78 73 74 78 87 91 90 92 95 93 91 88 83 80 76 69 63 60 59 57 54 52 46 36 28 25 27 28 29 29 29 30 30 30 30 29 28 27 26 26 29 32 32 48 80 97 98 98 98 97 98
84 88 84 78 78 80 84 92 94 96 97 97 95 94 90 86 79 66 64 67 65 61 58 54 49 40 31 32 30 31 32 32 32 33 33 34 33 31 29 28 27 27 27 30 30 32 33 43 77 97 98 98 98 99

GFSWCAN_prec_cthk_243.txt.gz
RH
31 33 35 40 46 51 58 59 55 50 45 46 49 48 44 54 58 57 59 66 66 61 61 46 43 50 57 66 75 71 75 78 87 89 89 86 77 76 78 66 58 59 84 98 95 94 76 66 55 56 52 52 50 52
33 34 41 46 54 55 57 56 50 50 45 44 48 47 43 57 59 61 60 54 52 61 52 38 40 44 62 68 76 86 86 83 83 90 94 96 96 93 87 97 84 88 79 95 87 63 67 74 71 59 59 59 53 52
37 43 47 53 56 57 54 50 49 48 44 45 48 43 45 57 60 58 52 44 48 52 45 40 34 36 53 56 65 76 83 89 95 90 93 95 92 89 93 87 84 81 83 96 98 92 86 86 83 71 60 51 50 48
44 50 52 54 58 56 53 53 49 46 47 48 47 43 53 56 58 52 50 43 52 59 57 42 48 60 70 78 77 81 83 95 98 98 97 90 89 94 88 82 76 71 69 67 64 68 77 75 80 77 63 56 52 46
51 52 52 58 57 52 52 50 44 44 46 46 41 44 55 56 57 47 37 30 41 53 52 40 49 58 65 73 84 86 84 94 98 99 96 90 83 86 76 70 64 61 62 69 59 51 57 73 82 77 66 57 61 55
53 55 59 58 51 52 50 50 51 49 46 43 47 52 51 49 46 40 40 46 44 51 66 58 54 59 70 74 76 79 92 92 99 96 96 90 81 85 79 65 49 57 61 66 68 67 58 64 71 58 55 50 47 49
56 60 61 56 55 55 54 53 51 48 46 46 49 51 50 47 46 42 36 54 64 70 75 69 48 65 82 79 83 83 80 78 79 82 75 76 74 88 77 66 46 58 66 72 75 69 66 60 62 55 48 42 39 36
53 57 57 56 55 55 56 55 53 49 45 47 49 51 49 42 39 39 31 45 53 65 73 68 44 38 69 87 90 87 82 78 78 80 75 76 78 87 76 56 54 65 80 80 80 77 69 61 58 58 53 46 42 39
51 52 50 50 53 53 55 55 55 49 45 47 50 48 44 42 40 38 46 50 52 64 72 65 56 60 74 86 89 90 86 89 85 85 85 86 86 81 70 70 83 86 83 79 74 74 68 60 55 50 48 44 41 38
60 54 48 45 44 47 49 50 52 51 47 53 51 58 56 51 58 58 55 59 68 77 82 63 52 46 54 81 90 98 98 97 92 80 84 89 84 82 80 74 76 78 86 80 68 58 54 50 51 51 51 51 51 49
61 54 51 52 54 49 46 48 51 53 50 58 63 62 63 60 50 55 60 69 69 72 66 64 64 58 56 58 66 79 85 91 92 80 89 94 96 99 98 98 92 85 82 77 69 64 61 61 64 66 67 67 66 63
64 62 61 55 57 61 51 47 53 54 57 63 63 59 58 54 49 55 59 58 67 64 69 85 90 91 93 91 92 96 95 88 84 78 89 93 96 91 91 88 85 83 77 69 66 64 62 65 73 74 71 69 69 69
64 63 68 66 58 56 58 48 55 55 55 57 63 62 59 53 57 59 59 58 64 65 83 92 95 91 93 93 94 92 92 87 77 80 83 95 95 92 88 87 82 75 70 65 62 63 68 75 79 80 80 80 78 77
69 70 68 64 63 57 51 48 58 58 58 63 68 66 60 58 52 42 44 52 65 75 86 95 98 94 89 93 93 96 87 82 83 82 88 96 96 90 86 80 75 70 66 66 68 72 77 79 81 85 89 89 90 93
76 72 67 70 76 75 64 58 62 61 62 67 67 64 52 44 41 46 56 64 76 79 85 92 87 84 84 84 83 82 86 83 82 92 94 95 93 91 85 81 76 71 68 69 73 77 80 83 85 87 89 89 92 93
78 68 62 71 73 69 67 67 73 73 71 65 62 51 42 47 45 47 53 63 72 74 72 76 81 77 73 72 71 72 70 74 81 88 88 89 85 83 81 77 75 73 70 70 75 81 84 88 90 90 87 91 93 91
81 69 67 75 72 67 68 71 75 76 72 66 53 41 42 41 38 35 39 45 64 83 87 86 92 81 62 72 73 84 93 93 96 94 88 83 78 76 75 74 72 70 70 72 74 84 89 93 93 89 85 89 94 92
79 70 70 69 67 61 54 67 71 65 63 59 52 39 43 42 44 44 55 63 68 69 85 93 89 85 85 94 95 94 92 90 89 86 80 78 74 73 72 71 74 71 66 66 69 83 90 94 92 89 86 90 91 92
77 74 72 73 67 59 54 59 67 67 55 49 44 41 43 44 45 46 53 66 75 84 88 86 83 81 81 81 81 88 93 92 87 83 80 74 66 61 61 69 75 74 69 64 65 76 89 94 92 87 85 88 91 93
77 71 64 57 63 64 61 48 56 70 61 50 47 45 47 46 49 54 60 64 76 85 86 80 72 81 82 68 73 81 82 80 80 78 73 66 58 50 50 62 71 75 73 68 67 71 79 91 93 89 85 88 92 93
63 57 53 50 62 69 60 55 59 54 50 50 44 49 47 47 56 60 69 79 83 82 75 68 72 81 84 67 55 58 64 65 63 59 56 48 43 43 47 52 59 68 73 75 71 73 72 79 91 89 86 83 89 95
56 60 61 59 62 65 64 43 42 51 64 65 64 67 69 76 79 84 89 92 82 72 72 74 77 78 70 66 64 59 57 54 52 52 48 45 43 45 49 52 52 57 67 74 76 73 76 73 84 92 87 84 82 89
68 67 70 67 69 69 51 50 55 52 53 44 55 68 65 72 77 85 95 91 82 78 78 75 74 77 77 69 61 54 51 50 52 50 46 44 45 47 51 53 51 54 61 68 76 77 76 79 77 88 91 86 84 81
69 71 69 69 60 50 41 48 62 68 66 66 69 69 65 71 81 93 91 85 79 78 80 83 78 77 78 74 63 55 52 50 53 49 46 44 45 48 52 52 51 56 61 65 70 76 78 80 82 82 90 89 83 81
77 74 65 68 62 66 54 47 54 65 69 79 83 85 83 88 90 90 89 86 82 79 83 86 81 81 79 72 63 58 55 51 51 48 44 40 40 40 42 46 47 53 57 62 67 71 79 81 83 84 85 92 86 80
77 69 74 58 50 45 62 74 66 61 71 78 78 87 96 95 98 92 86 78 76 84 89 90 89 86 81 71 63 57 54 47 43 39 34 30 29 29 32 36 41 45 50 57 64 69 75 82 85 84 85 89 94 87
80 82 53 40 52 61 69 69 80 92 92 80 73 77 86 95 91 86 81 77 86 93 95 91 85 80 65 61 59 51 42 36 34 33 32 30 31 31 29 27 31 37 43 50 56 64 72 78 87 90 88 88 92 96
66 49 48 65 56 53 79 96 96 95 90 88 96 97 91 89 87 81 78 87 90 87 77 74 69 65 60 55 47 39 36 34 33 33 35 34 34 33 32 26 26 27 30 39 50 58 64 75 83 93 96 90 91 95
63 50 44 60 85 87 88 98 95 92 89 85 85 88 89 86 82 79 84 90 86 76 65 61 61 55 47 39 38 35 31 31 31 27 29 35 34 31 22 20 20 21 24 27 35 47 60 68 79 89 98 98 93 96
66 66 77 92 98 97 98 93 90 85 83 80 81 82 80 79 79 82 91 92 87 85 77 57 47 45 45 44 41 33 28 24 22 24 26 27 25 22 22 22 21 21 22 22 25 30 42 59 72 87 95 98 98 98
62 71 80 97 98 92 85 81 82 79 73 74 76 79 84 85 85 93 92 90 90 84 72 57 53 55 53 47 43 38 33 26 24 23 23 23 23 24 24 24 24 24 24 24 26 26 28 41 63 80 92 98 98 98
79 97 98 93 90 87 81 78 75 74 75 82 84 85 90 89 92 87 86 86 84 81 63 54 51 49 48 46 40 35 29 25 25 25 25 26 26 26 26 26 26 25 25 23 24 23 26 31 41 68 87 98 98 98
97 94 82 82 83 80 79 80 76 79 83 87 87 90 90 91 93 91 88 85 77 69 64 60 56 54 47 38 34 30 28 27 27 28 28 28 28 29 29 29 28 27 26 26 25 24 27 30 35 42 72 94 99 99

GFSWCAN_prec_cthk_246.txt.gz
RH
26 28 27 28 33 38 42 45 52 57 57 52 49 49 48 49 46 54 55 59 60 58 49 47 48 55 51 48 63 59 66 68 78 91 97 96 96 96 91 72 66 68 71 76 80 92 83 62 66 67 70 69 70 67
29 30 29 35 40 42 45 50 54 56 53 53 49 45 48 49 46 58 54 58 61 57 44 42 41 44 42 41 67 71 76 83 86 83 87 89 92 93 90 90 80 84 87 83 75 78 83 88 90 73 74 72 68 67
34 34 37 40 42 46 50 51 52 52 55 53 49 50 48 43 48 57 57 58 54 46 36 34 33 36 36 39 50 62 63 76 85 93 95 96 92 90 89 86 85 83 88 96 94 81 85 83 83 82 79 78 69 65
39 35 37 41 48 49 50 54 56 54 54 52 50 52 48 44 55 57 57 53 48 47 50 39 45 48 41 53 58 62 74 81 89 93 96 92 91 88 82 79 83 78 77 71 76 74 79 75 81 74 76 74 68 64
41 40 43 48 49 49 52 56 53 50 48 50 56 49 45 48 57 57 57 46 42 46 45 42 30 27 45 57 62 70 82 90 95 99 98 97 91 95 86 83 69 65 62 72 80 81 87 86 73 70 70 68 63 60
41 43 48 52 50 54 57 55 53 55 55 55 52 48 52 54 55 53 45 45 49 48 53 51 44 42 58 74 69 72 79 92 99 98 96 93 89 97 90 69 45 50 56 64 79 68 68 68 67 62 60 63 61 61
34 45 50 51 53 57 59 56 55 55 55 55 52 55 54 51 55 54 42 41 53 60 59 59 55 35 55 53 77 86 84 79 81 84 80 82 88 94 84 66 50 60 56 55 69 77 75 69 65 65 64 60 59 56
42 43 44 47 53 58 54 54 55 56 57 55 52 54 54 54 53 51 37 37 49 59 61 62 62 40 34 52 75 87 92 92 90 91 85 85 88 94 86 65 60 65 66 64 74 83 82 75 74 66 58 54 51 48
58 51 46 44 46 53 55 51 53 56 59 53 51 56 58 52 50 43 54 45 39 51 61 58 60 56 53 72 82 93 97 96 90 93 90 89 90 91 80 79 75 73 84 83 83 84 84 76 65 54 50 46 43 43
57 57 57 53 55 58 51 44 49 54 63 55 59 60 60 54 60 62 64 63 63 64 62 58 63 60 56 60 70 74 84 92 90 81 84 88 81 85 95 97 90 85 81 84 82 78 75 66 54 48 46 48 50 49
70 66 64 60 57 56 54 54 47 54 62 60 66 66 67 67 66 62 61 63 62 64 62 59 69 73 72 67 68 64 64 74 86 75 85 87 88 91 97 97 98 98 96 92 82 75 64 59 58 55 53 56 55 56
75 68 62 60 62 53 57 62 52 60 66 77 74 72 70 67 63 60 62 59 62 59 56 70 86 93 92 90 95 88 84 87 85 85 93 86 80 81 89 91 89 86 81 76 70 65 63 64 66 66 65 63 65 63
83 76 64 68 69 69 59 50 60 64 68 67 68 67 64 62 66 64 62 56 58 55 64 84 90 89 91 99 99 97 98 95 86 90 84 76 76 82 89 89 88 81 75 73 71 68 66 67 69 70 72 74 72 68
82 77 66 68 74 79 80 72 60 70 73 72 78 78 68 64 56 46 47 51 53 61 66 75 88 96 98 99 96 96 86 86 89 85 77 76 80 84 85 87 84 81 76 72 69 69 68 70 75 79 80 77 73 73
90 89 81 72 76 79 76 71 75 79 76 79 79 73 60 48 46 53 54 55 62 65 74 78 81 83 86 89 88 88 90 85 82 77 78 80 82 84 86 84 81 78 74 70 68 67 69 71 76 81 82 77 75 76
86 89 85 77 82 85 78 79 85 89 85 75 74 67 55 55 50 46 51 57 58 60 73 79 78 77 80 82 86 84 82 74 70 74 83 86 83 81 80 74 72 72 70 67 65 65 66 71 77 82 85 82 77 77
85 90 92 84 85 81 76 76 82 93 91 77 67 57 50 48 46 39 37 42 54 56 63 73 89 76 73 81 79 85 80 76 88 93 96 95 88 82 79 74 70 69 70 69 66 63 62 66 79 83 83 82 78 79
87 87 94 88 84 78 73 73 84 86 78 70 67 54 48 45 43 42 41 39 46 58 65 77 82 91 85 75 85 94 95 96 97 95 90 86 83 82 78 72 69 66 63 62 70 65 61 63 72 83 83 81 79 79
88 94 93 92 89 82 73 71 69 76 64 56 49 42 39 38 37 38 38 41 52 62 80 84 86 80 71 73 74 85 91 92 93 92 88 86 84 83 77 71 65 60 56 55 67 70 66 64 63 74 84 80 79 80
84 94 94 93 87 80 75 65 69 72 61 52 47 44 42 42 40 43 45 49 56 67 81 82 78 71 73 73 75 79 89 91 83 76 75 73 70 67 62 58 53 46 46 47 58 66 70 66 64 67 80 83 79 80
78 82 88 85 86 85 73 69 68 60 52 45 34 35 38 40 44 46 48 51 61 71 79 72 71 74 72 74 76 78 84 87 76 54 51 54 54 52 48 46 46 46 48 50 52 61 70 72 68 69 75 88 84 79
72 72 72 75 75 73 69 61 53 40 50 51 49 56 62 63 60 61 69 77 81 77 77 76 79 82 80 75 73 77 81 76 66 52 51 48 44 44 45 45 45 47 49 52 54 57 63 72 71 70 74 81 87 83
82 76 71 68 72 69 51 42 45 44 49 37 32 42 56 62 62 73 83 93 92 92 86 87 86 83 80 76 72 75 80 71 62 54 51 48 46 46 47 46 47 48 51 54 56 57 60 66 73 72 75 77 84 86
87 82 78 73 68 59 42 42 56 62 59 58 60 58 51 48 47 66 72 78 78 87 90 92 89 84 81 78 76 77 76 70 62 58 54 49 45 44 46 45 45 45 47 49 54 58 60 63 67 73 73 78 80 85
83 80 73 66 65 67 54 43 39 38 48 63 76 86 82 86 89 89 78 72 78 86 97 92 83 77 75 81 81 83 80 72 64 58 51 46 39 39 37 36 35 36 38 41 46 51 57 61 65 71 74 77 79 84
80 71 68 62 55 51 47 50 73 63 50 48 64 67 73 83 89 83 74 76 82 92 90 82 79 78 86 92 94 88 80 71 58 49 41 36 32 30 28 26 27 30 32 35 40 45 52 57 62 67 76 79 78 83
81 65 60 46 42 43 57 51 41 68 73 86 72 71 83 96 92 94 96 93 87 85 83 78 78 83 88 89 90 81 68 51 44 41 38 36 34 32 30 27 24 23 24 27 33 40 44 51 57 64 71 79 83 84
61 66 58 59 73 61 61 66 80 91 94 94 98 96 93 82 79 85 88 88 84 79 73 78 80 80 83 79 73 63 47 41 43 40 38 35 33 32 30 26 19 18 18 20 23 28 36 43 51 57 65 75 84 89
54 48 55 64 68 65 64 73 81 86 92 95 90 93 92 93 89 82 82 81 80 73 81 85 81 68 68 67 60 43 39 39 41 40 36 33 30 31 29 21 19 18 18 18 19 20 24 30 41 54 60 69 82 93
51 70 76 80 79 68 61 70 84 97 97 94 90 85 83 80 77 76 75 73 72 80 87 88 88 79 62 51 41 39 38 37 36 33 30 27 25 22 21 20 20 19 19 19 19 18 19 22 29 43 58 65 75 91
65 79 86 89 92 85 83 96 97 96 92 87 80 73 72 72 70 71 74 75 81 89 90 87 80 68 53 50 48 46 42 36 31 27 25 24 24 23 23 22 21 21 20 20 20 20 19 22 25 29 48 64 73 87
82 85 88 88 86 87 87 98 96 87 80 73 69 67 68 72 76 79 82 87 90 91 90 88 80 62 54 52 50 48 43 36 31 27 26 25 25 24 23 23 22 23 23 24 23 21 22 23 24 27 34 57 72 82
95 93 92 96 98 98 98 97 88 82 74 68 68 69 73 79 84 86 85 88 89 87 87 82 69 59 57 54 49 43 39 34 30 27 27 26 26 26 25 25 25 26 27 26 24 24 26 27 27 28 32 40 67 81

GFSWCAN_prec_cthk_249.txt.gz
RH
29 29 30 28 30 33 35 37 39 39 43 52 54 55 54 52 55 57 51 57 60 57 48 48 48 50 53 55 53 45 63 66 73 80 88 95 95 97 94 82 76 78 80 89 88 85 79 71 82 94 97 85 85 82
36 35 33 36 40 38 36 38 40 43 47 52 55 56 54 53 58 60 53 57 60 58 48 47 43 43 44 49 51 58 61 77 84 86 84 82 88 87 88 95 84 95 87 92 96 85 66 63 71 82 90 89 86 82
41 38 39 42 41 39 38 40 44 47 49 54 56 55 55 53 57 59 54 61 60 56 43 34 26 34 37 40 45 61 60 60 68 74 87 93 90 86 88 85 85 84 97 97 85 64 61 61 65 78 89 90 91 82
45 46 44 43 41 39 41 44 46 47 51 54 54 55 53 55 54 58 61 60 61 58 48 29 32 33 37 41 44 55 59 67 79 88 96 93 90 86 90 86 78 69 75 78 74 65 65 70 71 80 79 86 85 80
43 43 48 46 42 41 44 45 46 48 51 51 49 53 58 55 53 61 61 58 59 57 45 35 32 26 28 34 44 60 71 80 91 96 94 95 93 97 93 82 64 73 74 84 69 59 61 65 74 78 80 78 74 75
40 47 44 46 45 45 47 47 51 54 55 53 56 57 53 54 63 64 60 50 49 53 52 45 30 27 38 59 54 72 73 80 89 94 95 92 92 98 85 70 66 76 70 68 61 55 60 61 68 72 77 75 70 61
47 42 43 45 44 46 49 53 56 57 57 55 58 57 60 69 63 61 58 53 52 54 55 48 40 35 48 48 49 64 82 87 90 91 79 80 89 94 81 74 62 75 73 70 65 58 53 65 76 79 76 70 66 60
56 53 47 39 39 46 51 54 55 61 58 58 60 59 60 68 69 63 65 58 54 57 59 53 43 40 38 50 55 70 86 94 92 91 86 88 91 94 81 72 76 83 88 80 87 76 70 79 87 85 79 71 60 50
61 59 55 50 51 49 47 48 55 57 59 65 57 58 62 67 69 61 63 61 56 56 57 54 50 49 51 71 79 73 79 93 95 94 94 92 88 82 72 80 90 93 93 89 89 89 94 88 86 80 71 65 55 49
66 67 60 57 53 49 49 53 49 53 53 65 62 69 72 64 63 72 77 72 68 65 59 49 52 58 53 63 60 68 73 88 91 80 85 84 71 68 75 83 94 95 97 91 81 86 85 80 78 73 62 59 58 56
63 77 73 63 58 58 59 58 60 54 50 64 68 72 76 80 82 82 78 72 68 66 56 52 55 69 82 90 87 71 71 80 87 70 79 80 69 71 75 81 87 89 88 87 81 75 66 61 58 59 61 62 60 60
65 74 77 69 64 64 65 60 62 58 57 75 77 84 88 87 87 83 78 70 67 57 49 55 67 83 89 90 94 92 88 91 89 90 95 83 71 74 73 76 81 86 91 79 73 69 66 64 64 63 64 67 70 71
79 76 85 78 66 64 66 65 58 53 63 78 82 89 85 81 84 80 73 67 66 55 53 64 78 83 88 97 94 97 96 96 97 96 85 69 72 72 74 78 81 83 81 78 73 69 66 64 63 64 64 68 71 73
79 77 86 81 74 74 72 83 82 65 72 77 89 87 79 78 71 62 60 57 56 62 63 66 71 75 83 90 97 98 92 91 92 86 68 66 71 74 77 80 81 83 83 78 75 71 64 62 61 66 70 71 73 75
90 80 85 89 81 72 81 88 89 85 90 92 88 86 78 65 62 70 65 59 60 61 61 62 71 74 76 85 89 88 94 91 79 73 74 76 75 75 82 86 82 75 75 72 69 65 62 59 57 61 69 71 71 73
91 83 82 96 95 85 91 93 92 92 90 85 84 81 72 72 65 66 71 75 68 69 65 65 71 72 71 70 75 81 86 82 75 79 78 79 81 86 86 86 80 74 72 70 67 66 63 60 55 55 61 69 70 71
89 86 87 95 94 95 95 95 95 99 97 89 80 70 68 69 65 64 64 64 61 63 67 66 71 65 69 75 68 68 68 70 76 84 88 92 94 94 85 79 75 72 70 69 68 64 60 57 64 61 58 66 74 73
87 86 95 98 99 97 94 92 92 95 92 90 87 74 74 69 65 61 55 57 59 56 55 61 61 62 66 65 70 71 78 80 88 91 93 92 91 88 84 80 78 76 75 72 66 59 55 52 64 67 63 61 68 75
82 82 87 93 99 99 94 92 89 84 74 75 71 71 69 62 55 49 48 48 52 56 62 68 70 68 61 58 66 73 76 77 79 84 90 91 90 87 78 71 69 68 63 58 52 43 42 47 58 68 66 62 63 70
84 79 89 99 99 98 95 89 87 85 77 67 61 58 57 54 52 55 55 56 61 68 65 63 57 60 67 69 72 75 78 81 79 78 78 83 84 81 70 56 48 48 49 46 45 44 45 49 56 63 69 64 62 67
68 72 83 93 99 96 93 88 87 80 74 72 62 61 61 59 56 51 48 51 59 59 57 52 49 49 60 67 72 76 80 79 77 76 71 69 77 76 61 46 44 45 46 46 47 49 51 53 55 59 68 69 65 67
59 70 79 87 90 91 86 78 73 66 63 55 56 62 64 65 58 58 66 68 62 51 55 55 54 56 67 76 82 87 81 74 70 67 66 69 75 65 48 43 45 47 47 47 49 49 52 54 57 59 63 69 68 70
75 76 81 82 83 78 69 56 60 59 60 47 39 43 41 37 31 36 60 60 57 55 59 74 81 85 86 94 91 85 79 74 71 65 67 73 68 55 47 46 47 47 47 48 47 48 50 53 56 58 61 67 69 71
81 84 84 80 74 70 55 57 60 65 63 61 60 54 50 50 47 54 44 30 35 46 62 71 84 93 98 98 91 85 80 78 74 69 67 72 66 55 48 45 44 42 40 39 39 41 43 47 52 57 60 64 69 71
87 87 84 80 77 76 67 55 46 43 42 40 44 64 69 83 89 89 80 56 53 50 56 71 88 97 98 95 88 82 77 75 73 78 83 76 64 50 42 38 36 34 33 31 31 32 36 40 46 52 59 63 67 72
83 81 75 73 75 70 60 56 53 47 50 70 72 53 43 55 88 86 68 69 69 72 75 82 94 94 89 83 77 74 78 85 88 89 81 66 46 37 37 36 32 27 24 22 22 25 29 35 39 44 52 60 66 72
87 79 70 59 51 47 50 43 41 59 64 70 70 70 75 71 61 56 69 84 87 89 91 90 87 81 76 72 71 80 91 94 88 64 49 45 41 41 39 36 31 22 17 17 19 20 21 24 29 36 42 53 62 71
82 68 66 56 53 51 63 67 67 70 65 68 90 96 93 85 77 74 82 87 90 88 85 80 75 74 72 68 81 90 85 70 54 45 45 44 43 40 37 33 27 19 17 17 17 17 17 17 19 24 34 44 55 65
73 69 57 55 53 62 67 75 76 69 65 74 84 88 98 97 91 87 85 84 85 83 79 74 71 72 82 83 74 74 68 55 46 45 46 45 42 37 34 28 20 19 19 18 18 18 17 16 16 18 24 34 48 58
57 64 65 58 55 64 61 58 62 69 79 85 88 96 98 93 86 81 79 77 74 71 71 71 71 82 92 93 80 67 53 45 45 48 49 46 39 32 26 23 22 21 20 20 19 17 16 16 17 19 21 25 40 54
56 60 62 63 61 60 78 79 87 91 94 94 95 98 92 84 77 73 71 70 68 66 66 69 78 87 88 81 66 51 44 42 42 42 40 35 30 28 26 24 23 22 21 19 18 17 17 17 18 19 21 23 30 49
55 59 66 68 73 79 86 95 98 97 95 96 95 85 77 70 67 63 62 66 68 73 76 81 87 90 88 78 64 54 52 49 45 42 38 34 30 28 26 25 23 22 21 20 20 21 21 21 22 23 22 23 26 41
83 88 89 92 91 94 99 99 98 96 92 93 88 80 72 67 65 61 64 73 81 83 86 91 91 90 83 71 62 56 51 47 45 42 37 33 30 28 26 24 23 23 23 24 24 24 24 25 26 26 26 27 28 34

GFSWCAN_prec_cthk_252.txt.gz
RH
35 31 29 28 29 29 32 35 40 39 37 37 41 48 53 52 51 61 60 62 65 63 55 53 50 53 54 55 56 52 54 63 69 72 78 83 86 85 79 81 88 86 91 88 88 89 84 78 69 78 81 85 92 97
44 40 38 36 36 39 42 43 42 40 38 40 43 48 51 53 53 58 61 61 62 64 56 49 47 42 44 45 51 55 52 59 71 79 81 85 84 82 84 89 78 94 94 94 95 85 74 70 71 75 78 84 95 96
51 49 47 44 42 44 45 45 43 41 41 44 47 48 52 54 52 58 61 64 65 65 57 50 38 33 31 33 40 51 56 58 62 65 75 80 86 88 92 87 82 76 83 95 91 69 70 65 78 81 80 85 90 94
56 53 51 53 48 45 46 47 45 43 44 47 46 50 55 52 50 57 61 59 64 68 63 41 32 29 29 34 34 37 54 61 64 70 77 82 89 83 84 79 80 84 81 71 62 55 60 60 68 73 79 82 85 88
56 51 51 52 57 55 52 50 46 45 47 46 45 50 53 51 55 63 60 59 69 71 64 48 39 28 28 29 33 37 53 70 73 79 81 84 85 90 82 76 71 78 80 76 56 53 57 56 64 74 77 82 82 83
58 52 52 50 53 56 55 53 49 49 50 48 49 53 56 56 58 63 63 60 69 72 72 55 36 28 33 38 42 48 56 76 77 81 81 80 85 88 80 71 69 75 74 74 63 61 55 51 55 62 71 78 79 82
64 57 51 49 51 53 53 51 51 56 57 54 55 59 58 56 65 68 64 59 67 68 69 57 44 33 39 44 46 51 62 68 86 86 82 84 85 89 79 72 65 72 77 78 78 76 72 63 57 58 67 75 78 75
68 67 62 59 54 50 49 48 51 55 58 60 63 61 58 63 69 71 69 73 75 75 72 61 48 39 38 42 53 59 70 73 75 85 83 86 89 88 77 67 68 73 80 90 91 85 87 81 72 73 78 78 74 69
60 66 70 66 60 55 50 50 50 56 56 61 66 65 61 65 66 64 73 72 76 76 68 66 56 47 38 56 64 69 77 79 76 76 80 88 87 77 64 67 69 83 95 90 96 92 88 96 95 89 80 71 64 58
71 66 71 72 67 61 57 55 60 58 52 53 66 68 62 59 63 68 84 85 87 85 79 65 56 49 43 50 58 68 74 73 77 63 77 82 68 59 62 64 67 76 89 94 96 94 89 84 79 74 68 63 59 57
75 74 69 83 79 71 62 62 59 61 53 54 69 71 68 74 78 89 94 91 90 83 73 62 57 56 61 74 82 85 83 83 80 69 74 73 62 62 65 69 70 77 78 82 85 81 76 72 69 67 65 63 61 60
73 78 74 82 82 74 68 70 67 60 66 71 73 79 77 80 90 93 93 86 83 74 71 65 62 66 75 76 86 89 89 89 85 84 90 83 64 65 70 72 72 73 77 84 83 80 78 74 71 68 66 64 63 62
75 84 83 79 85 79 69 70 76 78 72 75 82 81 82 91 94 92 87 81 84 78 69 67 75 75 74 84 88 90 91 92 88 93 80 67 67 69 71 74 76 77 78 77 79 79 76 73 70 66 61 61 61 62
65 74 78 77 85 91 80 76 86 86 82 73 83 85 85 87 81 73 71 70 72 84 86 87 82 79 79 81 81 90 95 97 97 88 70 65 68 73 74 79 82 83 80 78 77 74 71 68 66 64 60 56 55 58
80 84 84 77 78 93 86 77 98 94 93 88 86 86 82 71 69 73 76 73 81 82 80 84 81 81 74 77 75 73 84 89 87 74 70 72 73 76 76 78 86 87 83 78 74 68 66 66 64 64 60 55 53 54
86 88 89 86 86 95 95 88 95 99 97 97 91 82 76 82 78 77 82 88 88 91 88 82 81 84 78 73 74 74 70 67 57 65 71 74 76 77 82 86 88 87 82 72 71 73 72 71 66 60 56 53 58 59
89 88 86 91 95 96 98 98 98 99 99 91 84 82 82 81 81 78 79 88 88 88 89 84 82 71 71 77 66 60 59 55 62 66 70 75 78 81 90 95 91 84 81 79 78 74 73 68 60 53 49 48 62 68
94 91 87 89 97 99 99 99 98 97 92 90 92 88 84 80 81 82 82 78 75 80 81 80 73 70 71 68 59 54 53 58 67 82 83 80 81 84 85 85 84 83 80 74 68 65 56 50 45 43 42 44 58 68
88 90 89 88 95 99 99 98 98 92 80 81 79 79 80 84 84 83 82 81 76 71 72 74 76 73 62 51 44 43 55 67 71 75 75 72 68 70 71 75 79 76 72 67 60 49 46 45 44 45 46 47 54 65
78 82 84 92 99 99 99 98 92 94 89 83 75 74 74 72 68 70 69 69 73 78 78 72 61 58 57 55 61 65 70 72 75 76 73 70 70 71 69 66 63 62 64 61 50 44 46 45 48 50 51 52 54 61
62 69 75 81 92 99 97 92 85 83 82 82 76 83 88 84 77 73 72 68 76 76 71 62 62 61 57 50 49 50 54 60 66 73 73 72 71 67 64 62 59 60 64 49 42 44 44 46 47 50 53 56 57 58
63 64 65 72 86 94 96 94 85 78 76 72 71 65 61 61 65 66 69 79 74 66 65 61 55 58 59 58 53 50 54 63 73 78 77 72 67 65 63 61 59 62 56 45 43 43 44 46 49 50 52 54 56 59
73 74 76 77 82 81 79 72 78 76 76 68 61 61 62 62 57 56 57 42 37 38 49 57 60 58 51 58 64 67 69 76 86 84 78 72 70 67 62 60 61 61 52 45 42 42 41 41 41 43 47 51 54 56
80 84 80 83 79 79 73 75 70 67 63 61 61 63 60 63 71 71 61 50 47 49 43 39 48 48 53 67 79 86 91 93 91 82 76 74 70 66 63 61 63 57 43 36 36 35 35 34 34 36 40 44 50 55
81 85 83 81 81 77 75 70 65 63 58 59 53 47 43 38 45 58 52 37 46 51 55 54 51 60 67 74 89 97 98 93 85 77 73 71 71 72 70 69 55 39 34 33 31 28 27 26 28 31 35 38 43 51
78 73 79 73 73 72 69 67 61 59 63 57 53 47 50 67 66 50 34 34 50 68 74 69 65 66 75 84 93 96 90 82 75 70 71 78 83 82 67 50 43 38 35 29 24 22 19 19 20 22 26 32 38 43
81 79 79 75 73 70 70 61 57 62 59 57 54 62 71 78 68 48 41 38 57 72 76 91 93 90 92 87 81 77 74 73 71 75 84 83 67 51 45 45 43 41 33 25 21 17 16 16 16 17 18 22 30 38
75 82 81 72 72 65 67 67 64 59 58 64 64 80 88 94 96 97 96 83 76 82 89 91 90 86 80 75 72 70 70 69 79 85 69 51 48 47 46 45 42 36 28 24 20 18 18 17 17 16 17 17 20 31
71 69 75 79 80 74 72 69 60 48 50 61 76 80 79 80 87 91 96 98 96 95 90 84 79 77 77 75 73 75 80 77 75 60 46 47 48 48 47 44 38 31 26 22 20 19 19 18 18 18 18 17 17 21
67 69 77 79 85 79 62 49 44 57 62 59 63 74 78 83 91 96 98 97 92 86 80 76 72 69 70 73 74 83 93 81 69 52 47 48 50 49 44 37 33 29 25 23 22 21 20 19 18 17 17 17 17 17
72 77 71 74 77 63 55 53 52 56 59 67 78 91 91 96 92 89 87 84 79 75 72 70 69 68 69 70 79 90 83 68 54 47 46 45 45 43 40 36 31 28 25 24 23 22 20 19 17 16 18 18 19 19
69 65 61 58 50 54 56 56 63 68 75 79 90 94 96 96 83 72 68 67 66 64 65 67 66 67 70 77 87 85 76 64 53 47 46 46 45 43 39 34 30 27 26 24 23 22 20 19 19 20 21 22 22 22
55 56 58 62 68 69 66 73 82 86 85 89 92 92 89 85 77 66 63 63 65 68 68 72 77 80 85 90 90 86 74 59 53 51 49 47 45 42 37 32 30 27 25 24 23 22 22 22 22 24 25 25 25 26